When you browse on this site, cookies collect data to enhance your experience and personalize the content and advertising you see.
Visit our Privacy Policy to learn more. By continuing to use the site, you agree to this use of cookies and data.
  • In Schweiz
  • Länderverzeichnis
  • Für 7 Tage
  • Wassertemperatur
  • Satellitenkarten
  • Wetterkarte
  • Widgets
  • user-avatar
    Anmelden

    Stündliche Wetter Krupec

    Heute, 20 Juni, Donnerstag

    Zeit Temperatur Niederschläge Wind Luftdruck Luftfeuchtigkeit
    00:00 +15°C° 0 mm 0 m/S 748 mmHg 80%
    01:00 +16°C° 0 mm 1 m/S 748 mmHg 81%
    02:00 +16°C° 0 mm 1 m/S 748 mmHg 82%
    03:00 +16°C° 0 mm 0 m/S 748 mmHg 81%
    04:00 +17°C° 0 mm 0 m/S 748 mmHg 81%
    05:00 +17°C° 0 mm 0 m/S 748 mmHg 80%
    06:00 +19°C° 0 mm 0 m/S 748 mmHg 74%
    07:00 +21°C° 0 mm 0 m/S 748 mmHg 69%
    08:00 +23°C° 0 mm 0 m/S 749 mmHg 63%
    09:00 +24°C° 0 mm 0 m/S 749 mmHg 59%
    10:00 +25°C° 0 mm 0 m/S 749 mmHg 55%
    11:00 +28°C° 0 mm 1 m/S 749 mmHg 50%
    12:00 +28°C° 0 mm 1 m/S 748 mmHg 49%
    13:00 +28°C° 0 mm 1 m/S 748 mmHg 48%
    14:00 +28°C° 0 mm 1 m/S 748 mmHg 47%
    15:00 +28°C° 0 mm 1 m/S 748 mmHg 51%
    16:00 +28°C° 0 mm 1 m/S 748 mmHg 56%
    17:00 +28°C° 0 mm 1 m/S 748 mmHg 61%
    18:00 +26°C° 0 mm 1 m/S 748 mmHg 65%
    19:00 +23°C° 0 mm 1 m/S 748 mmHg 70%
    20:00 +21°C° 0 mm 1 m/S 748 mmHg 75%
    21:00 +21°C° 0 mm 1 m/S 748 mmHg 76%
    22:00 +20°C° 0 mm 1 m/S 748 mmHg 78%
    23:00 +19°C° 0 mm 1 m/S 748 mmHg 80%

    Morgen, 21 Juni, Freitag

    Zeit Temperatur Niederschläge Wind Luftdruck Luftfeuchtigkeit
    00:00 +19°C° 0 mm 1 m/S 748 mmHg 81%
    01:00 +18°C° 0 mm 1 m/S 749 mmHg 82%
    02:00 +18°C° 0 mm 1 m/S 749 mmHg 84%
    03:00 +18°C° 0 mm 1 m/S 749 mmHg 84%
    04:00 +19°C° 0 mm 1 m/S 749 mmHg 84%
    05:00 +20°C° 0 mm 1 m/S 749 mmHg 85%
    06:00 +20°C° 0 mm 2 m/S 749 mmHg 80%
    07:00 +23°C° 0 mm 2 m/S 749 mmHg 75%
    08:00 +24°C° 0 mm 2 m/S 749 mmHg 70%
    09:00 +25°C° 0 mm 3 m/S 749 mmHg 66%
    10:00 +26°C° 0 mm 3 m/S 749 mmHg 62%
    11:00 +27°C° 0 mm 3 m/S 749 mmHg 58%
    12:00 +28°C° 0 mm 3 m/S 749 mmHg 57%
    13:00 +28°C° 0 mm 4 m/S 748 mmHg 57%
    14:00 +28°C° 0 mm 4 m/S 748 mmHg 56%
    15:00 +28°C° 0 mm 3 m/S 748 mmHg 61%
    16:00 +28°C° 0 mm 3 m/S 748 mmHg 65%
    17:00 +27°C° 0 mm 3 m/S 748 mmHg 69%
    18:00 +26°C° 0 mm 3 m/S 748 mmHg 74%
    19:00 +24°C° 0 mm 3 m/S 748 mmHg 79%
    20:00 +21°C° 0 mm 3 m/S 748 mmHg 84%
    21:00 +21°C° 0 mm 3 m/S 748 mmHg 86%
    22:00 +20°C° 0 mm 3 m/S 748 mmHg 87%
    23:00 +19°C° 0 mm 3 m/S 748 mmHg 89%

    übermorgen, 22 Juni, Samstag

    Zeit Temperatur Niederschläge Wind Luftdruck Luftfeuchtigkeit
    00:00 +19°C° 0 mm 3 m/S 748 mmHg 90%
    01:00 +19°C° 0 mm 3 m/S 748 mmHg 91%
    02:00 +18°C° 0 mm 3 m/S 748 mmHg 93%
    03:00 +19°C° 0 mm 3 m/S 748 mmHg 92%
    04:00 +19°C° 0 mm 3 m/S 748 mmHg 90%
    05:00 +20°C° 0 mm 3 m/S 748 mmHg 89%
    06:00 +21°C° 0 mm 3 m/S 749 mmHg 85%
    07:00 +23°C° 0 mm 4 m/S 749 mmHg 80%
    08:00 +25°C° 0 mm 4 m/S 749 mmHg 75%
    09:00 +27°C° 0.1 mm 4 m/S 749 mmHg 70%
    10:00 +28°C° 0.1 mm 4 m/S 749 mmHg 66%
    11:00 +29°C° 0.1 mm 5 m/S 748 mmHg 61%
    12:00 +29°C° 0 mm 5 m/S 748 mmHg 60%
    13:00 +29°C° 0 mm 5 m/S 748 mmHg 59%
    14:00 +29°C° 0 mm 5 m/S 748 mmHg 58%
    15:00 +29°C° 0 mm 4 m/S 748 mmHg 62%
    16:00 +29°C° 0 mm 4 m/S 748 mmHg 66%
    17:00 +28°C° 0 mm 4 m/S 748 mmHg 70%
    18:00 +26°C° 0 mm 3 m/S 748 mmHg 74%
    19:00 +25°C° 0 mm 3 m/S 748 mmHg 79%
    20:00 +22°C° 0 mm 3 m/S 748 mmHg 84%
    21:00 +21°C° 0 mm 2 m/S 748 mmHg 86%
    22:00 +21°C° 0 mm 2 m/S 748 mmHg 88%
    23:00 +20°C° 0 mm 2 m/S 748 mmHg 90%

    23 Juni, Sonntag

    Zeit Temperatur Niederschläge Wind Luftdruck Luftfeuchtigkeit
    00:00 +19°C° 0 mm 2 m/S 748 mmHg 91%
    01:00 +19°C° 0 mm 2 m/S 748 mmHg 92%
    02:00 +19°C° 0 mm 2 m/S 748 mmHg 93%
    03:00 +19°C° 0 mm 2 m/S 748 mmHg 91%
    04:00 +20°C° 0 mm 2 m/S 749 mmHg 90%
    05:00 +21°C° 0 mm 1 m/S 749 mmHg 89%
    06:00 +23°C° 0.2 mm 1 m/S 749 mmHg 85%
    07:00 +24°C° 0.2 mm 1 m/S 749 mmHg 81%
    08:00 +25°C° 0.2 mm 1 m/S 749 mmHg 77%
    09:00 +26°C° 1.5 mm 2 m/S 749 mmHg 75%
    10:00 +27°C° 1.5 mm 2 m/S 749 mmHg 74%
    11:00 +27°C° 1.5 mm 3 m/S 749 mmHg 72%
    12:00 +27°C° 1.2 mm 3 m/S 749 mmHg 72%
    13:00 +27°C° 1.2 mm 3 m/S 750 mmHg 72%
    14:00 +27°C° 1.2 mm 3 m/S 750 mmHg 73%
    15:00 +27°C° 0.9 mm 3 m/S 749 mmHg 76%
    16:00 +26°C° 0.9 mm 3 m/S 749 mmHg 80%
    17:00 +25°C° 0.9 mm 4 m/S 749 mmHg 84%
    18:00 +24°C° 0.2 mm 3 m/S 750 mmHg 85%
    19:00 +21°C° 0.2 mm 3 m/S 750 mmHg 87%
    20:00 +20°C° 0.2 mm 3 m/S 750 mmHg 89%
    21:00 +19°C° 0 mm 3 m/S 750 mmHg 87%
    22:00 +18°C° 0 mm 3 m/S 750 mmHg 86%
    23:00 +17°C° 0 mm 3 m/S 751 mmHg 85%

    24 Juni, Montag

    Zeit Temperatur Niederschläge Wind Luftdruck Luftfeuchtigkeit
    00:00 +17°C° 0.1 mm 3 m/S 751 mmHg 85%
    01:00 +16°C° 0.1 mm 3 m/S 751 mmHg 85%
    02:00 +16°C° 0.1 mm 3 m/S 751 mmHg 84%
    03:00 +16°C° 0.1 mm 3 m/S 751 mmHg 84%
    04:00 +16°C° 0.1 mm 3 m/S 752 mmHg 83%
    05:00 +16°C° 0.1 mm 3 m/S 752 mmHg 82%
    06:00 +17°C° 0 mm 3 m/S 752 mmHg 78%
    07:00 +18°C° 0 mm 4 m/S 752 mmHg 75%
    08:00 +19°C° 0 mm 4 m/S 752 mmHg 72%
    09:00 +20°C° 0 mm 4 m/S 752 mmHg 67%
    10:00 +21°C° 0 mm 4 m/S 753 mmHg 63%
    11:00 +22°C° 0 mm 4 m/S 753 mmHg 59%
    12:00 +23°C° 0 mm 5 m/S 753 mmHg 58%
    13:00 +23°C° 0 mm 5 m/S 752 mmHg 58%
    14:00 +23°C° 0 mm 5 m/S 752 mmHg 57%
    15:00 +23°C° 0 mm 4 m/S 752 mmHg 59%
    16:00 +23°C° 0 mm 4 m/S 752 mmHg 62%
    17:00 +22°C° 0 mm 3 m/S 752 mmHg 64%
    18:00 +21°C° 0 mm 3 m/S 752 mmHg 69%
    19:00 +19°C° 0 mm 2 m/S 753 mmHg 73%
    20:00 +17°C° 0 mm 2 m/S 753 mmHg 77%
    21:00 +16°C° 0 mm 2 m/S 753 mmHg 75%
    22:00 +16°C° 0 mm 2 m/S 753 mmHg 73%
    23:00 +15°C° 0 mm 2 m/S 753 mmHg 70%

    25 Juni, Dienstag

    Zeit Temperatur Niederschläge Wind Luftdruck Luftfeuchtigkeit
    00:00 +15°C° 0 mm 2 m/S 753 mmHg 74%
    01:00 +14°C° 0 mm 2 m/S 753 mmHg 77%
    02:00 +14°C° 0 mm 2 m/S 754 mmHg 81%
    03:00 +14°C° 0 mm 2 m/S 753 mmHg 80%
    04:00 +15°C° 0 mm 2 m/S 753 mmHg 80%
    05:00 +15°C° 0 mm 2 m/S 753 mmHg 80%
    06:00 +17°C° 0 mm 2 m/S 753 mmHg 75%
    07:00 +19°C° 0 mm 2 m/S 754 mmHg 70%
    08:00 +20°C° 0 mm 2 m/S 754 mmHg 65%
    09:00 +21°C° 0 mm 2 m/S 753 mmHg 61%
    10:00 +23°C° 0 mm 2 m/S 753 mmHg 56%
    11:00 +24°C° 0 mm 2 m/S 753 mmHg 51%
    12:00 +24°C° 0 mm 2 m/S 753 mmHg 52%
    13:00 +24°C° 0 mm 2 m/S 753 mmHg 52%
    14:00 +24°C° 0 mm 1 m/S 752 mmHg 52%
    15:00 +24°C° 0 mm 1 m/S 752 mmHg 54%
    16:00 +24°C° 0 mm 1 m/S 752 mmHg 56%
    17:00 +23°C° 0 mm 1 m/S 752 mmHg 58%
    18:00 +22°C° 0 mm 1 m/S 752 mmHg 65%
    19:00 +20°C° 0 mm 1 m/S 752 mmHg 71%
    20:00 +18°C° 0 mm 1 m/S 752 mmHg 77%
    21:00 +16°C° 0 mm 1 m/S 751 mmHg 79%
    22:00 +14°C° 0 mm 0 m/S 751 mmHg 80%
    23:00 +14°C° 0 mm 0 m/S 751 mmHg 82%
    Mehr zeigen